| time (UTC) | temp F | wind direction | speed MPH | gust MPH | rain 1hr in | rain 24hr in | rain mn in | humidity % | barometer mb |
| 20260510153017 | 69 | 17 | 0.0 | 0.0 | 0.00 | 0.00 | 0.00 | 87 | 1015.0 |
| 20260510151520 | 68 | 17 | 0.0 | 0.0 | 0.00 | 0.00 | 0.00 | 90 | 1014.9 |
| 20260510150026 | 68 | 17 | 0.0 | 0.0 | 0.00 | 0.00 | 0.00 | 92 | 1014.9 |
| 20260510144528 | 67 | 17 | 0.0 | 0.0 | 0.00 | 0.00 | 0.00 | 92 | 1014.9 |
| 20260510143019 | 66 | 18 | 0.0 | 0.0 | 0.00 | 0.00 | 0.00 | 94 | 1014.9 |
| 20260510141520 | 66 | 17 | 0.0 | 0.0 | 0.00 | 0.00 | 0.00 | 95 | 1014.9 |
| 20260510140020 | 65 | 17 | 0.0 | 0.0 | 0.00 | 0.00 | 0.00 | 96 | 1014.9 |
| 20260510134524 | 64 | 17 | 0.0 | 0.0 | 0.00 | 0.00 | 0.00 | 96 | 1014.8 |
| 20260510133028 | 64 | 17 | 0.0 | 0.0 | 0.00 | 0.00 | 0.00 | 96 | 1014.6 |
| 20260510131512 | 64 | 17 | 0.0 | 0.0 | 0.00 | 0.00 | 0.00 | 96 | 1014.5 |
| 20260510130018 | 63 | 17 | 0.0 | 0.0 | 0.00 | 0.00 | 0.00 | 96 | 1014.6 |
| 20260510124520 | 62 | 17 | 0.0 | 0.0 | 0.00 | 0.00 | 0.00 | 96 | 1014.4 |
| 20260510123026 | 62 | 18 | 0.0 | 0.0 | 0.00 | 0.00 | 0.00 | 96 | 1014.1 |
| 20260510121528 | 62 | 17 | 0.0 | 0.0 | 0.00 | 0.00 | 0.00 | 96 | 1013.9 |
| 20260510120025 | 62 | 17 | 0.0 | 0.0 | 0.00 | 0.00 | 0.00 | 96 | 1013.6 |
| 20260510114520 | 61 | 129 | 0.0 | 0.0 | 0.00 | 0.00 | 0.00 | 96 | 1013.5 |
| 20260510113027 | 61 | 129 | 0.0 | 0.0 | 0.00 | 0.00 | 0.00 | 96 | 1013.2 |
| 20260510111508 | 60 | 129 | 0.0 | 0.0 | 0.00 | 0.00 | 0.00 | 96 | 1012.9 |
| 20260510110026 | 60 | 129 | 0.0 | 0.0 | 0.00 | 0.00 | 0.00 | 96 | 1012.7 |
| 20260510104515 | 60 | 129 | 0.0 | 0.0 | 0.00 | 0.00 | 0.00 | 96 | 1012.4 |
| 20260510103021 | 60 | 129 | 0.0 | 0.0 | 0.00 | 0.00 | 0.00 | 96 | 1012.0 |
| 20260510101503 | 60 | 129 | 0.0 | 0.0 | 0.00 | 0.00 | 0.00 | 96 | 1011.9 |
| 20260510100006 | 59 | 129 | 0.0 | 0.0 | 0.00 | 0.00 | 0.00 | 95 | 1011.7 |
| 20260510094513 | 59 | 129 | 0.0 | 0.0 | 0.00 | 0.00 | 0.00 | 95 | 1011.5 |
| 20260510093027 | 59 | 129 | 0.0 | 0.0 | 0.00 | 0.00 | 0.00 | 95 | 1011.4 |
| 20260510091523 | 59 | 129 | 0.0 | 0.0 | 0.00 | 0.00 | 0.00 | 95 | 1011.2 |
| 20260510090004 | 59 | 129 | 0.0 | 0.0 | 0.00 | 0.00 | 0.00 | 95 | 1011.0 |
| 20260510084507 | 59 | 129 | 0.0 | 0.0 | 0.00 | 0.00 | 0.00 | 95 | 1010.9 |
| 20260510083013 | 59 | 129 | 0.0 | 0.0 | 0.00 | 0.00 | 0.00 | 95 | 1010.7 |
| 20260510081518 | 60 | 129 | 0.0 | 0.0 | 0.00 | 0.00 | 0.00 | 95 | 1010.6 |
| 20260510080020 | 60 | 129 | 0.0 | 0.0 | 0.00 | 0.00 | 0.00 | 95 | 1010.6 |
| 20260510074504 | 60 | 129 | 0.0 | 0.0 | 0.00 | 0.02 | 0.00 | 95 | 1010.5 |
| 20260510073010 | 60 | 129 | 0.0 | 0.0 | 0.00 | 0.14 | 0.00 | 95 | 1010.4 |
| 20260510071517 | 60 | 129 | 0.0 | 0.0 | 0.00 | 0.20 | 0.00 | 95 | 1010.3 |
| 20260510070018 | 61 | 129 | 0.0 | 0.0 | 0.00 | 0.20 | 0.00 | 95 | 1010.4 |
| 20260510064528 | 61 | 129 | 0.0 | 0.0 | 0.00 | 0.20 | 0.00 | 95 | 1010.6 |
| 20260510063026 | 61 | 129 | 0.0 | 0.0 | 0.00 | 0.20 | 0.00 | 95 | 1010.7 |
| 20260510061510 | 62 | 129 | 0.0 | 0.0 | 0.00 | 0.20 | 0.00 | 95 | 1010.8 |
| 20260510060016 | 62 | 129 | 0.0 | 0.0 | 0.00 | 0.20 | 0.00 | 95 | 1010.8 |
| 20260510054523 | 63 | 129 | 0.0 | 0.0 | 0.00 | 0.20 | 0.00 | 95 | 1010.9 |
| 20260510053022 | 63 | 129 | 0.0 | 0.0 | 0.00 | 0.20 | 0.00 | 95 | 1010.9 |
| 20260510051527 | 63 | 129 | 0.0 | 0.0 | 0.00 | 0.20 | 0.00 | 95 | 1011.1 |
| 20260510050010 | 64 | 129 | 0.0 | 0.0 | 0.00 | 0.20 | 0.00 | 95 | 1011.3 |
| 20260510044524 | 64 | 129 | 0.0 | 0.0 | 0.00 | 0.20 | 0.20 | 95 | 1011.3 |
| 20260510043022 | 64 | 129 | 0.0 | 0.0 | 0.00 | 0.20 | 0.20 | 94 | 1011.1 |
| 20260510041523 | 64 | 129 | 0.0 | 0.0 | 0.00 | 0.20 | 0.20 | 94 | 1011.2 |
| 20260510040025 | 64 | 129 | 0.0 | 0.0 | 0.00 | 0.20 | 0.20 | 94 | 1011.4 |
| 20260510034512 | 64 | 129 | 0.0 | 0.0 | 0.00 | 0.20 | 0.20 | 94 | 1011.5 |
| 20260510033016 | 64 | 129 | 0.0 | 0.0 | 0.00 | 0.20 | 0.20 | 94 | 1011.6 |
| 20260510031523 | 65 | 129 | 0.0 | 0.0 | 0.00 | 0.20 | 0.20 | 94 | 1011.5 |
| 20260510030035 | 65 | 129 | 0.0 | 0.0 | 0.00 | 0.20 | 0.20 | 93 | 1011.6 |
| 20260510024526 | 66 | 129 | 0.0 | 0.0 | 0.00 | 0.20 | 0.20 | 93 | 1011.5 |
| 20260510023012 | 66 | 129 | 0.0 | 0.0 | 0.00 | 0.20 | 0.20 | 93 | 1011.0 |
| 20260510021516 | 67 | 129 | 0.0 | 0.0 | 0.00 | 0.20 | 0.20 | 93 | 1010.9 |
| 20260510020026 | 67 | 129 | 0.0 | 0.0 | 0.00 | 0.20 | 0.20 | 93 | 1010.7 |
| 20260510014507 | 68 | 129 | 0.0 | 0.0 | 0.00 | 0.20 | 0.20 | 92 | 1010.5 |
| 20260510013009 | 68 | 129 | 0.0 | 0.0 | 0.00 | 0.20 | 0.20 | 92 | 1010.1 |
| 20260510011515 | 68 | 129 | 0.0 | 0.0 | 0.00 | 0.20 | 0.20 | 92 | 1009.8 |
| 20260510010018 | 68 | 129 | 0.0 | 0.0 | 0.00 | 0.20 | 0.20 | 91 | 1009.5 |
| 20260510004522 | 69 | 129 | 0.0 | 0.0 | 0.00 | 0.20 | 0.20 | 91 | 1009.1 |
| 20260510003019 | 69 | 129 | 0.0 | 0.0 | 0.00 | 0.20 | 0.20 | 90 | 1008.9 |
| 20260510001511 | 69 | 129 | 0.0 | 0.0 | 0.00 | 0.20 | 0.20 | 89 | 1008.6 |
| 20260510000018 | 70 | 129 | 0.0 | 0.0 | 0.00 | 0.20 | 0.20 | 90 | 1008.6 |
| 20260509234521 | 70 | 129 | 0.0 | 0.0 | 0.00 | 0.20 | 0.20 | 90 | 1008.5 |
| 20260509233026 | 70 | 129 | 0.0 | 0.0 | 0.00 | 0.20 | 0.20 | 89 | 1008.6 |
| 20260509231524 | 71 | 129 | 0.0 | 0.0 | 0.00 | 0.20 | 0.20 | 87 | 1008.1 |
| 20260509230017 | 71 | 129 | 0.0 | 0.0 | 0.00 | 0.20 | 0.20 | 87 | 1008.4 |
| 20260509224516 | 72 | 129 | 0.0 | 0.0 | 0.00 | 0.20 | 0.20 | 85 | 1008.2 |
| 20260509223022 | 73 | 129 | 0.0 | 0.0 | 0.00 | 0.20 | 0.20 | 82 | 1008.1 |
| 20260509221528 | 73 | 129 | 0.0 | 0.0 | 0.00 | 0.20 | 0.20 | 82 | 1008.0 |
| 20260509220029 | 74 | 129 | 0.0 | 0.0 | 0.00 | 0.20 | 0.20 | 80 | 1007.8 |
| 20260509214516 | 75 | 129 | 0.0 | 0.0 | 0.00 | 0.20 | 0.20 | 74 | 1007.7 |
| 20260509213020 | 75 | 129 | 0.0 | 0.0 | 0.00 | 0.20 | 0.20 | 78 | 1007.6 |
| 20260509211527 | 75 | 129 | 0.0 | 0.0 | 0.00 | 0.20 | 0.20 | 72 | 1007.4 |
| 20260509210023 | 75 | 129 | 0.0 | 0.0 | 0.00 | 0.20 | 0.20 | 80 | 1007.4 |
| 20260509204525 | 76 | 129 | 0.0 | 0.0 | 0.00 | 0.20 | 0.20 | 76 | 1007.4 |
| 20260509203022 | 75 | 129 | 0.0 | 0.0 | 0.00 | 0.20 | 0.20 | 71 | 1007.6 |
| 20260509201520 | 76 | 129 | 0.0 | 0.0 | 0.00 | 0.20 | 0.20 | 73 | 1007.8 |
| 20260509200022 | 76 | 129 | 0.0 | 0.0 | 0.00 | 0.20 | 0.20 | 73 | 1008.2 |
| 20260509194526 | 78 | 129 | 0.0 | 1.0 | 0.00 | 0.20 | 0.20 | 75 | 1008.0 |
| 20260509193031 | 77 | 129 | 1.0 | 1.0 | 0.00 | 0.20 | 0.20 | 66 | 1008.0 |
| 20260509191517 | 78 | 129 | 0.0 | 0.0 | 0.00 | 0.20 | 0.20 | 70 | 1008.4 |
| 20260509190022 | 79 | 129 | 0.0 | 1.0 | 0.00 | 0.20 | 0.20 | 72 | 1008.5 |
| 20260509184530 | 78 | 352 | 1.0 | 3.0 | 0.00 | 0.20 | 0.20 | 68 | 1008.6 |
| 20260509183025 | 76 | 352 | 2.0 | 3.0 | 0.00 | 0.20 | 0.20 | 69 | 1008.8 |
| 20260509181525 | 76 | 352 | 0.0 | 2.0 | 0.00 | 0.20 | 0.20 | 75 | 1008.9 |
| 20260509180019 | 75 | 352 | 1.0 | 2.0 | 0.00 | 0.20 | 0.20 | 76 | 1009.1 |
| 20260509174522 | 74 | 129 | 1.0 | 2.0 | 0.00 | 0.20 | 0.20 | 75 | 1009.5 |
| 20260509173022 | 73 | 127 | 0.0 | 2.0 | 0.00 | 0.20 | 0.20 | 78 | 1009.9 |
| 20260509171503 | 71 | 129 | 0.0 | 1.0 | 0.00 | 0.20 | 0.20 | 81 | 1009.9 |
| 20260509170004 | 70 | 129 | 0.0 | 1.0 | 0.00 | 0.20 | 0.20 | 86 | 1009.8 |
| 20260509164504 | 68 | 129 | 0.0 | 1.0 | 0.00 | 0.20 | 0.20 | 88 | 1009.9 |
| 20260509163007 | 67 | 129 | 0.0 | 2.0 | 0.00 | 0.20 | 0.20 | 90 | 1010.1 |
| 20260509161504 | 66 | 129 | 0.0 | 2.0 | 0.00 | 0.20 | 0.20 | 91 | 1010.4 |
| 20260509160008 | 65 | 129 | 0.0 | 0.0 | 0.00 | 0.20 | 0.20 | 92 | 1010.4 |
| 20260509154513 | 65 | 129 | 0.0 | 0.0 | 0.00 | 0.20 | 0.20 | 94 | 1010.2 |